Location: La Oliva
(42.2466°N, 2.9955°E)
Time: 08:13:19
(UTC+00:00)

Cosmos 1943 - Pass Details

Date: 22 April 2021
Orbit: 834 x 849 km, 71.0° (Epoch: 07 May)

Event Time Altitude Azimuth Distance (km) Brightness Sun altitude
Rises 21:42:37 0° 340° (NNW) 3,393 7.5 -28.3°
Reaches altitude 10° 21:45:11 10° 347° (NNW) 2,457 6.4 -28.6°
Enters shadow 21:50:09 45° 46° (NE) 1,133 3.8 -29.1°
